London-Corbin, KY

9:05 PM EDT on May 23, 2017 (GMT -0400)
London-Corbin / McKee

Weather History for KLOZ - December, 2013

Change the Weather History Date:

Friday, December 27, 2013

  Actual Average Record
Temperature  
Mean Temperature 36 °F 36 °F  
Max Temperature 50 °F 45 °F 75 °F (2015)
Min Temperature 22 °F 28 °F 4 °F (1966)
Degree Days  
Heating Degree Days 29 29  
Month to date heating degree days 625 706  
Since 1 July heating degree days 1492 1536  
Cooling Degree Days 0 0  
Month to date cooling degree days 0 0  
Year to date cooling degree days 1083 1190  
Moisture  
Dew Point 20 °F    
Average Humidity 58    
Maximum Humidity 88    
Minimum Humidity 27    
Precipitation  
Precipitation 0.00 in 0.13 in 1.11 in (2011)
Month to date precipitation 5.58 3.76  
Year to date precipitation 55.56  
Sea Level Pressure  
Sea Level Pressure 30.42 in    
Wind  
Wind Speed 1 mph (SSW)    
Max Wind Speed 8 mph    
Max Gust Speed 11 mph    
Visibility 10 miles    
Events      
T = Trace of Precipitation, MM = Missing Value Source: NWS Daily Summary

Daily Weather History Graph

Daily Weather History Graph

Search for Another Location

Airport or City:

Trip Planner

Search our weather history database for the weather conditions in past years. The results will help you decide how hot, cold, wet, or windy it might be!

Date:

Astronomy

Dec. 27, 2013 Rise Set
Actual Time 7:48 AM EST 5:26 PM EST
Civil Twilight 7:19 AM EST 5:55 PM EST
Nautical Twilight 6:47 AM EST 6:28 PM EST
Astronomical Twilight 6:15 AM EST 6:59 PM EST
Moon 2:23 AM EST (12/27) 1:32 PM EST (12/27)
Length of Visible Light 10h 35m
Length of Day
9h 37m
Waning Crescent, 28% of the Moon is Illuminated
Dec 27
Waning Crescent
Jan 1
New
Jan 7
First Quarter
Jan 15
Full
Jan 24
Last Quarter

Hourly Weather History & Observations

Time (EST) Temp. Windchill Dew Point Humidity Pressure Visibility Wind Dir Wind Speed Gust Speed Precip Events Conditions
12:53 AM 26.1 °F - 19.9 °F 78% 30.40 in 10.0 mi Calm Calm - N/A   Clear
1:53 AM 26.1 °F - 21.0 °F 81% 30.39 in 10.0 mi Calm Calm - N/A   Clear
2:53 AM 25.0 °F - 19.0 °F 78% 30.40 in 9.0 mi Calm Calm - N/A   Clear
3:53 AM 24.1 °F - 19.0 °F 81% 30.40 in 10.0 mi Calm Calm - N/A   Clear
4:53 AM 23.0 °F - 19.0 °F 85% 30.40 in 8.0 mi Calm Calm - N/A   Clear
5:53 AM 23.0 °F - 19.0 °F 85% 30.41 in 10.0 mi Calm Calm - N/A   Clear
6:53 AM 23.0 °F - 17.1 °F 78% 30.43 in 10.0 mi Calm Calm - N/A   Clear
7:53 AM 21.9 °F - 17.1 °F 82% 30.45 in 9.0 mi Calm Calm - N/A   Clear
8:53 AM 25.0 °F - 21.0 °F 85% 30.47 in 9.0 mi Calm Calm - N/A   Clear
9:53 AM 30.0 °F - 24.1 °F 79% 30.49 in 10.0 mi Calm Calm - N/A   Clear
10:53 AM 37.0 °F - 25.0 °F 62% 30.49 in 10.0 mi Calm Calm - N/A   Clear
11:53 AM 42.1 °F 37.7 °F 24.1 °F 49% 30.47 in 10.0 mi SSW 6.9 mph - N/A   Clear
12:53 PM 46.0 °F - 19.9 °F 35% 30.44 in 10.0 mi Calm Calm - N/A   Clear
1:53 PM 48.0 °F - 18.0 °F 30% 30.41 in 10.0 mi SW 3.5 mph - N/A   Clear
2:53 PM 50.0 °F - 19.0 °F 29% 30.39 in 10.0 mi South 3.5 mph - N/A   Clear
3:53 PM 50.0 °F - 18.0 °F 28% 30.39 in 10.0 mi West 6.9 mph - N/A   Clear
4:53 PM 48.9 °F - 19.0 °F 31% 30.40 in 10.0 mi South 3.5 mph - N/A   Clear
5:53 PM 42.1 °F - 21.0 °F 43% 30.39 in 10.0 mi Calm Calm - N/A   Clear
6:53 PM 39.0 °F - 21.0 °F 49% 30.40 in 10.0 mi Calm Calm - N/A   Clear
7:53 PM 34.0 °F - 21.9 °F 61% 30.42 in 10.0 mi Calm Calm - N/A   Clear
8:53 PM 32.0 °F - 21.9 °F 66% 30.41 in 10.0 mi Calm Calm - N/A   Clear
9:53 PM 30.9 °F - 21.0 °F 67% 30.41 in 9.0 mi Calm Calm - N/A   Clear
10:53 PM 28.0 °F - 21.9 °F 78% 30.40 in 10.0 mi Calm Calm - N/A   Clear
11:53 PM 28.9 °F - 21.9 °F 75% 30.39 in 10.0 mi Calm Calm - N/A   Clear